Location: Poughquag
(41.6090°N, 73.6820°W)
Time: 19:16:42
(UTC-05:00)

A-11 Canister half - Pass Details

Date: 10 December 2023
Orbit: 1526 x 1682 km, 47.3° (Epoch: 23 February)

Event Time Altitude Azimuth Distance (km) Brightness Sun altitude
Rises 21:21:15 0° 287° (WNW) 4,936 12.2 -54.3°
Reaches altitude 10° 21:24:28 10° 290° (WNW) 3,944 11.5 -54.8°
Enters shadow 21:28:23 27° 296° (WNW) 2,804 10.5 -55.5°
